{"data":{"norad_id":56028,"epoch":"2026-09-20T07:49:29.208000Z","epoch_age_seconds":121107,"freshness":"FRESH","line1":"1 56028U 23042AU  26263.32603250 -.00000898  00000+0 -23109-4 0  9997","line2":"2 56028  43.0060  25.9290 0001709 281.1447  78.9212 15.27574396192805","mean_motion":15.27574396,"eccentricity":0.0001709,"inclination_deg":43.006,"raan_deg":25.929,"arg_perigee_deg":281.1447,"mean_anomaly_deg":78.9212,"bstar":-2.3109e-5,"rev_number":19280,"period_min":94.267094536979,"perigee_km":481.89329691139,"apogee_km":484.23845605457,"semimajor_km":6861.202876483,"source":"CELESTRAK","updated_at":"2026-09-21T09:00:33.358297Z"}}